INTELSAT 905 (IS-905)

Last updated on Sat Jun 21 2025 00:02:42 GMT+0000 (Coordinated Universal Time)

1 27438U 02027A 25171.43659873 .00000103 00000+0 00000+0 0 9998 2 27438 5.8411 74.1706 0002354 12.7290 201.9439 1.00271697 47737
UTC large
Height (km)
Speed (km/s)
/
Latitude / Longitude
Inclination (degrees)
Orbital Period (minutes)
Azimuth
Elevation
Range (km)
Doppler Factor

Next 0 passes for location: London (51.5072 / 0.1276)

Sorry there are no passes over London.